SCP
2 2 1 1 1 1 1 1 1 0 0 0 0 0 0 0 0 0 0 0 0 0 0 1 1 1 1 1 1 1 1 1 1 1 1 1 1 1 1 1 1 1 1
2 2 2 1 1 1 1 1 1 0 0 0 0 0 0 0 0 0 0 0 0 0 0 1 1 1 1 1 1 1 1 1 1 1 1 1 1 1 1 1 1 1 1
2 2 2 1 1 1 1 1 1 0 0 0 0 0 0 0 0 0 0 0 0 0 0 1 1 1 1 1 1 1 1 1 2 2 2 2 2 2 2 2 1 1 1
2 2 2 2 1 1 1 1 1 0 0 0 0 0 0 0 0 0 0 0 0 0 0 0 0 1 1 1 1 1 1 2 2 2 2 2 2 2 2 2 1 1 1
2 2 2 2 1 1 1 1 1 1 0 0 0 0 0 0 0 0 0 0 0 0 0 0 0 0 0 0 0 1 1 2 2 2 2 2 2 2 2 2 1 1 1
2 2 2 1 1 1 1 1 1 1 1 0 0 0 0 0 0 0 0 0 0 0 0 0 0 0 0 0 0 0 1 1 1 2 2 2 2 2 2 2 1 1 1
2 2 1 1 1 1 1 1 1 1 1 1 0 0 0 0 0 0 0 0 0 0 0 0 0 0 0 0 0 0 0 1 1 1 2 2 2 2 2 2 2 2 2
1 1 1 1 1 1 1 1 1 1 1 1 1 0 0 0 0 0 0 0 0 0 0 0 0 0 0 0 0 0 0 0 0 0 1 2 2 2 3 3 3 2 2
1 1 1 1 1 1 1 1 1 1 1 1 1 1 1 1 1 0 0 0 0 0 0 0 0 0 0 0 0 0 0 0 0 0 1 1 2 2 2 2 2 2 2
1 1 0 0 0 0 0 0 1 1 1 1 1 1 1 1 1 0 0 0 0 0 0 0 0 0 0 0 0 0 0 0 0 1 1 1 1 1 1 1 1 2 2
1 1 0 0 0 0 0 1 1 1 1 1 1 1 1 1 1 0 0 0 0 0 0 0 0 0 0 0 0 0 0 0 0 0 0 1 1 1 0 1 1 1 1
1 0 0 0 0 0 0 1 1 1 1 1 0 0 0 1 1 0 0 0 0 0 0 0 0 0 0 0 0 0 0 0 0 0 0 0 0 0 0 0 1 1 1
0 0 0 0 0 0 0 1 1 1 1 0 0 0 0 0 0 0 0 0 0 0 0 0 0 0 0 0 0 0 0 0 0 0 0 0 0 0 0 0 0 1 1
0 0 0 0 0 0 0 0 1 1 1 0 0 0 0 0 0 0 0 0 0 0 0 0 0 0 0 0 0 0 0 0 0 0 0 0 0 0 0 0 0 0 0
0 0 0 0 0 0 0 0 0 0 0 0 0 0 0 0 0 0 0 0 0 0 0 0 0 0 0 0 0 0 0 0 0 0 0 0 0 0 0 0 0 0 0
0 0 0 0 0 0 0 0 0 0 0 0 0 0 0 0 0 0 0 0 0 0 0 0 0 0 0 0 0 0 0 0 0 0 0 0 0 0 0 0 0 0 0
0 0 0 0 0 0 0 0 0 0 0 0 0 0 0 0 0 0 0 0 0 0 0 0 0 0 0 0 0 0 0 0 0 0 0 0 0 0 0 0 0 0 0
0 0 0 0 0 0 0 0 0 0 0 0 0 0 0 0 0 0 0 0 0 0 0 0 0 0 0 0 0 0 0 0 0 0 0 0 0 0 0 0 0 0 0
0 0 0 0 0 0 0 0 0 0 0 0 0 0 0 0 0 0 0 0 0 0 0 0 0 0 0 0 0 0 0 0 0 0 0 0 0 0 0 0 0 0 0
0 0 0 0 0 0 0 0 0 0 0 0 0 0 0 0 0 0 0 0 0 0 0 0 0 0 0 0 0 0 0 0 0 0 0 0 0 0 0 0 0 0 0
0 0 0 0 0 0 0 0 0 0 0 0 0 0 0 0 0 0 0 0 0 0 0 0 0 0 0 0 0 0 0 0 0 0 0 0 0 0 0 0 0 0 0
0 0 0 0 0 0 0 0 0 0 0 0 0 0 0 0 0 0 0 0 0 0 0 0 0 0 0 0 0 0 0 0 0 0 0 0 0 0 0 0 0 0 0
0 0 0 0 0 0 0 0 0 0 0 0 0 0 0 0 0 0 0 0 0 0 0 0 0 0 0 0 0 0 0 0 0 0 0 0 0 0 0 0 0 0 0
0 0 0 0 0 0 0 0 0 0 0 0 0 0 0 0 0 0 0 0 0 0 0 0 0 0 0 0 0 0 0 0 0 0 0 0 0 0 0 0 0 0 0
0 0 0 0 0 0 0 0 0 0 0 0 0 0 0 0 0 0 0 0 0 0 0 0 0 0 0 0 0 0 0 0 0 0 0 0 0 0 0 0 0 0 0
0 0 0 0 0 0 0 0 0 0 0 0 0 0 0 0 0 0 0 0 0 0 0 0 0 0 0 0 0 0 0 0 0 0 0 0 0 0 0 0 0 0 0
Wind_Speed
2 2 2 2 2 2 1 2 2 1 1 1 1 1 1 2 2 1 2 5 7 7 6 6 5 5 5 5 4 4 4 4 4 4 4 4 5 5 6 6 6 7 8
2 2 2 2 2 2 2 2 2 1 1 1 1 1 1 2 2 2 2 3 6 7 7 6 6 6 6 5 5 5 5 5 5 5 5 5 5 5 6 7 7 7 7
2 2 2 2 2 2 2 2 2 1 1 1 1 2 2 2 2 2 2 2 2 5 7 7 7 7 8 7 7 7 7 6 6 6 6 6 5 5 5 6 7 7 8
2 2 2 2 3 2 2 2 2 2 1 1 1 1 1 1 2 2 2 2 2 3 4 8 8 9 9 9 8 8 8 8 8 8 8 8 7 6 6 6 7 7 8
2 2 2 2 2 2 2 2 2 2 2 2 1 1 1 1 2 2 3 3 4 3 3 5 7 9 10 10 10 9 9 9 8 8 9 9 8 7 7 7 7 7 7
2 2 1 2 2 2 2 2 2 2 1 2 1 0 1 1 1 2 3 3 3 4 4 4 3 5 9 10 11 10 10 9 9 9 9 9 9 8 8 8 7 7 7
2 1 1 1 2 2 2 2 1 1 1 2 1 1 1 1 1 1 2 2 3 4 4 4 4 3 4 8 11 11 11 10 9 9 9 10 10 9 8 8 8 8 8
2 1 1 1 2 1 2 2 1 1 1 1 2 2 2 3 2 1 1 2 3 3 4 4 4 5 4 3 6 11 11 10 9 9 9 10 10 10 9 9 9 9 8
1 1 1 1 1 1 1 2 1 1 1 0 1 2 3 2 1 1 0 1 2 2 2 3 4 5 5 4 4 8 11 11 10 9 9 10 11 10 10 9 9 9 9
0 0 0 1 1 1 1 2 2 2 2 1 1 1 2 2 3 2 2 0 1 2 2 2 3 4 4 4 4 8 11 10 10 10 10 10 11 11 10 10 9 9 9
1 1 1 1 1 1 1 1 1 2 2 2 1 1 2 2 3 3 3 2 2 1 1 2 2 2 3 4 4 8 11 11 10 10 10 10 11 11 11 10 10 9 9
2 2 2 2 2 2 2 2 2 2 2 2 2 2 2 2 2 3 4 4 3 2 2 1 1 2 2 3 5 9 9 10 10 10 10 10 10 11 11 11 10 9 9
2 2 2 2 2 2 3 3 3 3 3 3 3 2 2 3 2 3 4 4 4 3 3 2 1 1 2 2 3 8 7 9 10 10 9 9 10 10 10 10 10 10 9
2 2 3 3 3 3 3 3 3 3 3 3 3 3 3 3 3 3 3 3 4 4 4 3 1 1 1 2 4 7 5 8 9 9 9 9 9 9 9 9 9 9 9
2 3 3 4 4 4 4 4 4 4 3 4 3 3 3 3 3 3 3 4 4 4 4 2 2 1 1 2 4 5 5 7 8 8 7 8 8 8 8 8 8 9 9
3 4 4 4 4 4 4 4 4 4 4 4 3 4 4 3 3 3 3 4 4 4 4 2 2 2 3 3 4 5 5 7 7 7 7 7 7 7 8 8 8 8 9
4 4 4 4 4 4 5 5 5 5 5 5 5 5 5 5 4 3 3 4 4 5 6 5 3 3 5 5 4 4 5 5 4 6 7 7 7 7 8 8 7 8 8
4 4 4 4 5 5 5 5 6 5 6 6 6 6 6 4 6 5 4 5 5 5 6 7 5 4 5 5 5 6 5 4 5 5 7 7 8 8 8 8 8 8 8
4 4 4 5 5 5 5 5 6 6 6 6 6 6 6 6 6 5 5 5 4 4 5 6 6 4 4 4 5 5 6 5 5 4 6 7 8 8 8 8 8 8 8
4 4 4 5 5 5 5 5 6 6 6 6 6 7 7 7 7 6 5 6 5 5 5 6 6 5 5 4 5 5 4 4 4 4 5 6 7 8 8 8 8 8 8
4 4 4 5 5 5 5 6 6 6 6 6 6 7 7 7 8 7 5 6 6 5 5 5 6 5 5 4 4 4 5 5 5 4 5 4 4 4 5 6 7 7 8
4 4 5 5 5 4 6 8 7 6 6 7 7 7 6 7 9 11 11 10 9 8 7 6 6 7 7 6 4 4 4 5 4 2 5 5 4 5 4 4 5 8 9
4 5 5 5 6 6 7 9 9 7 7 7 7 7 5 6 8 7 9 11 11 12 12 9 8 8 7 6 5 6 6 6 6 4 5 6 4 6 4 5 8 9 9
4 4 5 6 6 6 7 9 9 8 8 8 8 8 8 7 7 7 7 8 8 9 10 9 9 8 7 6 6 6 7 7 7 5 5 6 5 5 5 5 6 8 9
5 5 5 6 7 7 7 8 8 6 6 8 8 8 8 8 9 9 8 8 8 8 7 10 10 10 9 10 8 5 5 5 6 5 3 5 4 5 6 5 4 7 9
5 5 6 6 7 8 7 8 9 6 6 7 6 7 10 11 10 11 10 9 9 8 7 7 8 10 9 9 11 8 6 6 5 5 3 4 4 4 5 3 4 4 6
Wind_Direction
55 48 42 30 20 10 356 343 333 351 349 359 353 345 349 347 351 355 34 38 15 8 8 7 5 359 351 346 345 345 348 345 341 327 307 296 285 276 274 276 274 270 268
52 47 47 29 19 5 354 333 349 337 352 354 355 356 353 358 3 4 11 45 37 24 19 15 12 7 2 1 6 6 4 357 354 353 343 323 307 292 281 278 277 276 276
50 48 41 29 18 1 356 347 5 337 8 2 1 5 5 6 13 12 14 10 28 41 29 19 17 19 17 15 17 18 21 15 8 360 352 347 336 323 309 299 288 280 276
47 45 41 31 11 0 355 0 0 349 2 348 355 10 11 18 20 23 24 20 12 17 40 35 30 28 26 24 22 23 22 19 12 6 359 351 344 336 326 320 311 295 283
45 45 40 26 10 8 7 2 3 352 352 356 351 355 7 21 26 32 43 36 29 22 25 49 41 35 29 26 23 19 18 16 12 6 359 352 345 337 329 324 317 308 295
54 45 44 30 11 13 13 6 9 8 349 345 324 348 27 40 34 31 33 43 40 36 32 31 33 39 35 29 24 18 14 11 7 4 1 356 347 338 330 323 317 312 307
56 49 29 34 17 14 5 357 348 351 8 347 288 245 178 112 66 56 38 39 47 42 38 32 26 19 27 29 22 13 8 4 1 1 0 357 352 345 336 330 323 318 317
46 40 31 30 19 356 359 357 350 304 351 349 309 281 249 196 155 75 36 37 38 40 37 32 31 26 19 16 19 13 3 0 359 360 0 357 353 348 344 343 342 339 335
45 30 11 11 17 354 351 341 323 294 284 267 313 299 290 293 308 189 100 32 21 20 24 23 27 23 17 13 5 11 5 358 356 354 356 356 355 352 349 347 345 345 346
235 354 301 319 341 325 323 334 315 289 278 266 257 300 308 320 288 279 208 212 346 340 357 6 10 16 12 5 6 10 3 0 0 359 0 1 358 356 352 352 350 349 352
210 224 258 267 273 281 294 303 296 277 267 264 268 270 259 259 257 272 276 261 270 281 313 326 343 358 3 359 358 11 5 0 358 356 356 357 356 355 355 354 352 354 355
214 214 230 246 253 258 263 267 266 261 262 254 253 247 260 263 264 264 276 282 286 277 271 280 310 341 350 347 6 6 360 356 353 350 348 352 354 354 353 354 352 350 352
231 220 224 240 247 250 254 253 250 248 247 248 251 253 255 262 275 272 271 282 285 280 256 237 250 309 338 336 356 353 349 349 346 346 346 350 354 353 351 347 348 350 349
257 257 240 241 244 248 247 242 246 242 243 244 248 251 252 254 256 260 267 279 280 270 250 243 217 267 321 323 350 330 330 343 338 339 342 345 346 343 341 340 340 344 349
255 255 254 249 242 244 246 243 244 240 238 241 239 237 245 249 247 248 252 255 269 281 278 250 236 215 302 312 331 319 321 334 331 331 334 338 340 338 337 338 338 339 341
251 251 251 253 251 248 246 241 245 242 240 239 241 240 237 239 240 236 239 246 252 265 274 281 270 279 293 293 312 308 311 313 314 319 321 325 328 330 331 330 331 333 333
249 245 244 247 248 247 247 243 242 243 243 243 238 239 241 242 243 238 233 236 241 247 261 274 270 277 279 286 297 298 298 298 303 314 314 317 318 319 320 321 322 324 326
252 249 245 243 245 246 246 246 247 243 244 246 245 240 241 237 241 242 236 236 239 242 256 270 271 270 273 282 291 292 291 288 291 302 303 304 306 307 308 309 309 313 317
257 253 248 247 249 249 248 248 250 249 247 248 248 244 243 239 241 239 238 240 241 242 247 259 268 269 271 273 282 279 279 279 287 287 283 288 295 295 296 298 300 305 309
259 258 253 253 253 252 249 248 246 247 248 248 248 246 245 240 243 243 242 242 241 242 242 250 260 265 267 270 272 279 282 282 287 281 278 286 286 283 282 287 293 296 299
263 265 261 258 254 251 246 247 245 246 249 251 248 245 244 240 243 244 243 243 240 240 242 247 255 262 260 261 266 278 283 294 286 274 290 283 279 271 268 269 274 284 292
266 264 262 263 261 253 251 251 254 253 251 250 251 248 245 238 240 243 244 246 246 244 243 245 252 255 262 264 268 271 282 290 286 273 293 286 277 272 271 275 288 286 285
267 265 265 265 266 262 258 260 252 255 253 250 250 250 248 243 241 243 243 243 245 246 247 251 254 257 265 264 265 266 267 272 277 295 295 281 271 273 274 276 283 280 278
268 268 268 267 269 267 263 265 259 253 253 250 247 246 249 251 240 240 246 247 248 245 240 242 251 259 264 266 258 265 274 277 277 269 264 273 278 278 281 276 268 269 271
272 271 271 271 271 273 264 263 260 256 251 253 249 246 246 251 246 241 245 249 253 253 244 243 252 258 261 259 255 256 255 261 270 262 239 262 279 289 283 270 255 261 270
273 276 273 271 270 274 271 263 257 252 252 256 254 249 242 245 250 243 242 245 251 255 254 249 246 249 252 249 244 243 245 249 260 266 228 244 271 291 288 267 261 262 263